Regional Weather Roundup
Issued by NWS Pendleton, OR

Home | Current Version | Previous Version | Text Only | Print | Product List | Glossary On
Versions: 1 2 3 4 5 6 7 8 9 10 11 12 13 14 15 16 17 18 19 20 21 22 23 24 25 26 27 28 29 30 31 32 33 34 35 36 37 38 39 40 41 42 43 44 45 46 47 48 49 50
873
ASUS46 KPDT 271125
RWRPDT
PENDLETON REGIONAL WEATHER ROUNDUP
NATIONAL WEATHER SERVICE PENDLETON OREGON
400 AM PDT SAT MAY 27 2017

NOTE: FAIR INDICATES FEW OR NO CLOUDS BELOW 12,000 FEET WITH NO
SIGNIFICANT WEATHER AND/OR OBSTRUCTIONS TO VISIBILITY.

# INDICATES UNOFFICIAL STATION AND DATA

WAZ520-271210-
EAST SLOPES OF WASHINGTON CASCADES

CITY            SKY/WX      TMP DP  RH  WIND    PRES   REMARKS
#BULLFROG       N/A         43  40  89  CALM    N/A
#CLE ELUM HS    N/A         45  41  86  CALM    30.02R
#CLE ELUM LAKE  N/A         N/A N/A N/A S1      30.06F
#EASTON DOT     N/A         44  41  89  N1      N/A
#ELK HTS DOT    N/A         48  47  96  SW1     N/A
#GLENWOOD       N/A         40  38  92  CALM    30.03S
#NELSON 3SW     N/A         47  41  79  CALM    30.21S
#NILE           N/A         47  40  76  CALM    29.35R
#TEANAWAY 4NE   N/A         44  42  93  CALM    N/A
#TROUT LAKE 1NE N/A         47  42  83  CALM    30.02S
#TROUT LAKE 1E  N/A         41  39  93  CALM    30.09S
$$

WAZ521-271210-
SIMCOE HIGHLANDS

CITY            SKY/WX      TMP DP  RH  WIND    PRES   REMARKS
#BICKLETON HS   N/A         55  39  55  W6      30.04R
#CENTERVILLE 1SWN/A         44  38  79  CALM    29.98S
#GOLDENDALE 1NE N/A         49  31  50  N5      N/A
#GOLDENDALE 4W  N/A         45  27  49  CALM    30.09R
#GOODNOE HILLS  N/A         58  40  51  NE2     N/A
#LYLE 6NE       N/A         55  45  69  NE2     29.97R
#PITT 4SE       N/A         55  43  64  CALM    30.02R
$$

WAZ026-271210-
KITTITAS VALLEY

CITY            SKY/WX      TMP DP  RH  WIND    PRES   REMARKS
ELLENSBURG AP   CLEAR       48  41  77  NE3     30.06R
YTC-OPS AREA    CLEAR       59  34  39  N21     30.08S
#ELLENSBURG CWU N/A         50  43  77  CALM    29.96R
#ELLENSBURG 3NE N/A         47  42  83  CALM    28.14R
#KITTITAS 4N    N/A         49  38  66  NE2     30.07R
#KITTITAS 3S    N/A         42  40  93  CALM    30.02R
#MANASTASH RDG  N/A         56  56  100 W6      N/A
#ROCKY CYN DOT  N/A         49  43  80  W8      N/A
#RYEGRASS DOT   N/A         50  41  71  W8      N/A
#THORP 6N       N/A         48  42  80  N2      30.02S
$$

WAZ027-271210-
YAKIMA VALLEY

CITY            SKY/WX      TMP DP  RH  WIND    PRES   REMARKS
SUNNYSIDE AP    CLEAR       48  42  80  CALM    30.03S
YAKIMA AIRPORT  CLEAR       53  44  71  W5      30.05R
YAKIMA-VAGABOND CLEAR       48  40  74  CALM    30.03S
#DONALD 2NE     N/A         61  21  21  W2      28.88R
#GRANDVIEW      N/A         52  42  69  CALM    30.02S
#MABTON         N/A         50  42  74  CALM    30.02R
#MOXEE 2E       N/A         51  N/A N/A CALM    30.05R
#NACHES 2SW     N/A         57  43  59  W7      30.04S
#OUTLOOK DOT    N/A         53  44  71  CALM    29.99R
#PARKER DOT     N/A         62  43  50  S9      30.02R
#TERRACE HTS    N/A         53  43  69  CALM    29.98R
#TOPPENISH      N/A         55  46  72  CALM    29.93R
#I82 S UMTANUM RN/A         54  40  59  N3      N/A
#UNION GAP DOT  N/A         51  44  77  NE3     30.06R
#WEST VALLEY    N/A         57  45  64  CALM    29.99R
#W YAKIMA       N/A         59  44  57  NW2     30.00R
#WHITE SWAN 5E  N/A         50  45  83  CALM    30.02R
#WILEY CITY 3W  N/A         52  40  63  CALM    30.02R
#ZILLAH DOT     N/A         52  47  83  CALM    N/A
$$

WAZ028-271210-
LOWER COLUMBIA BASIN...WASHINGTON

CITY            SKY/WX      TMP DP  RH  WIND    PRES   REMARKS
PASCO           CLEAR       51  45  80  E3      30.03R
PROSSER AWOS    N/A         50  45  83  CALM    30.06R
RICHLAND AWOS   CLEAR       55  47  74  CALM    30.02R
#BENTON CITY    N/A         55  41  59  CALM    29.91R
#CONNELL 5N     N/A         46  40  79  CALM    30.01R
#CONNELL 5NW    N/A         48  42  80  CALM    29.96R
#ELTOPIA 6NW    N/A         57  44  62  CALM    28.99S
#KAHLOTUS       N/A         49  42  77  S8      30.01R
#KENNEWICK 3S   N/A         61  41  48  S1      30.00R
#PATERSON       N/A         55  46  72  CALM    30.00R
#PROSSER DOT    N/A         52  45  77  CALM    30.03R
#SAGEMOOR 2W    N/A         58  45  62  CALM    29.87R
#TOUCHET 2S     N/A         43  41  93  CALM    30.00S
#WEST PASCO     N/A         55  44  66  SE1     30.02R
$$

WAZ029-271210-
FOOTHILLS OF THE BLUES...WASHINGTON

CITY            SKY/WX      TMP DP  RH  WIND    PRES   REMARKS
WALLA WALLA AP  CLEAR       59  38  45  E10     30.04R
#CLYDE 6NW      N/A         49  42  77  CALM    30.01R
#DAYTON SCHOOL  N/A         53  34  48  N5      30.08R
#DELANEY DOT    N/A         44  41  89  CALM    30.06R
#LOWDEN 2SE     N/A         47  44  89  E1      30.00R
#PLEASANT VIEW 1N/A         57  41  55  S2      30.03R
#PRESCOTT       N/A         49  44  83  CALM    30.02R
#WHITMAN COLLEGEN/A         56  44  64  CALM    30.06R
#WAITSBURG 6SSE N/A         52  37  56  E5      30.03R
#WAITSBURG 8N   N/A         44  N/A N/A N2      30.02F
#WALLA WALLA 5E N/A         53  42  66  NE6     N/A
#WHITMAN MISSIONN/A         49  45  86  CALM    30.04R
$$

WAZ030-271210-
BLUE MOUNTAINS...WASHINGTON

CITY            SKY/WX      TMP DP  RH  WIND    PRES   REMARKS
#DIXIE 5SE      N/A         61  32  33  SE1     30.02R
$$

ORZ009-041-WAZ024-271210-
COLUMBIA RIVER GORGE

CITY            SKY/WX      TMP DP  RH  WIND    PRES   REMARKS
HOOD RIVER AP   CLEAR       50  45  83  CALM    30.05R
THE DALLES AP   CLEAR       55  45  69  E5      30.03R
#ARLINGTON AIRPON/A         58  41  53  CALM    30.02R
#CELILO DOT     N/A         56  44  64  S2      N/A
#LYLE           N/A         57  47  69  NE9     30.03R
#MARYHILL       N/A         57  42  57  N2      N/A
#MURDOCK        N/A         56  48  74  CALM    29.99R
#RUFUS DOT      N/A         57  45  64  S6      N/A
#SMITHVILLE     N/A         50  45  83  CALM    29.97S

$$

ORZ510-271210-
NORTH CENTRAL OREGON

CITY            SKY/WX      TMP DP  RH  WIND    PRES   REMARKS
#ANTELOPE       N/A         39  34  82  NE3     29.91S
#CHENOWITH 1W   N/A         51  35  54  NW14    N/A
#COW CYN RST AREN/A         56  33  42  E2      N/A
#DUFUR          N/A         46  41  83  CALM    29.98S
#DUFUR 9E       N/A         63  39  41  CALM    30.03S
#GRASS VALLEY 1SN/A         51  37  59  S2      30.08R
#KENT DOT       N/A         53  30  41  S2      N/A
#MAUPIN SCHOOL  N/A         52  40  63  CALM    30.10R
#MORO SCHOOL    N/A         49  42  77  S1      30.14R
#SHANIKO 5WSW   N/A         57  27  31  N3      N/A
#SHANIKO 4NW    N/A         60  32  35  S5      30.10S
#TYGH VALLEY 2NEN/A         48  40  74  CALM    30.02S
#WAPANITIA AIRPON/A         45  40  82  CALM    30.03R
#WASCO DOT      N/A         44  39  82  SE1     N/A
#WASCO 5NE      N/A         52  39  61  CALM    30.00R
$$

ORZ511-271210-
CENTRAL OREGON

CITY            SKY/WX      TMP DP  RH  WIND    PRES   REMARKS
BEND AIRPORT    CLEAR       46  34  63  SW7     30.08R
MADRAS AIRPORT  CLEAR       45  36  70  S3      30.11R
PRINEVILLE AP   CLEAR       39  32  76  MISG    30.13R
REDMOND AIRPORT CLEAR       41  31  67  S7      30.11S
#ASHWOOD SCHOOL N/A         45  37  73  CALM    30.06S
#BEND 1SW       N/A         40  34  79  N1      N/A
#BEND-AWBREY    N/A         50  36  58  E1      30.02S
#BEND-KIM LN    N/A         40  34  79  CALM    29.98R
#CULVER         N/A         46  37  71  CALM    29.96S
#CULVER 8W      N/A         43  34  70  CALM    30.08S
#MADRAS 4S      N/A         48   7  18  S6      N/A
#POWELL BUTTE   N/A         50  34  54  S1      30.06S
#PRINEVILLE     N/A         47  37  68  E9      30.13R
#PRINEVILLE 3N  N/A         39  35  85  CALM    30.06R
#WARM SPRINGS   N/A         45  37  73  CALM    29.91R

$$


ORZ509-271210-
EAST SLOPES OF OREGON CASCADES

CITY            SKY/WX      TMP DP  RH  WIND    PRES   REMARKS
SISTERS AWOS    N/A         37  32  82  CALM    30.08S
#CAMP SHERMAN   N/A         35  30  82  CALM    30.12R
#LA PINE 4SW    N/A         33  27  78  CALM    30.15S
#LA PINE 4NW    N/A         32  27  82  CALM    30.11R
#LAVA BUTTE DOT N/A         40  33  76  NE6     N/A
#SISTERS 3N     N/A         35  25  66  CALM    30.11S
#SUNRIVER       N/A         38  33  82  CALM    30.07S
#TUMALO 3W      N/A         56  34  43  SW2     29.90R
#WANOGA BUTTE D N/A         49  29  46  CALM    N/A

$$

ORZ044-271210-
LOWER COLUMBIA BASIN...OREGON

CITY            SKY/WX      TMP DP  RH  WIND    PRES   REMARKS
HERMISTON       CLEAR       49  43  80  SE6     30.02S
#BOARDMAN SCHOOLN/A         49  41  74  CALM    30.02R
#BOARDMAN 8SW   N/A         57  43  59  CALM    30.01R
#ECHO 8SW       N/A         49  41  74  S1      30.04R
#I-84 EX 198 DOTN/A         55  40  57  NE12    N/A
#IONE SCHOOL    N/A         53  37  54  CALM    30.03R
#UMATILLA       N/A         53  42  66  CALM    29.95R
$$

ORZ507-271210-
NORTHERN FOOTHILLS OF THE BLUES

CITY            SKY/WX      TMP DP  RH  WIND    PRES   REMARKS
PENDLETON AIRPT CLEAR       47  41  79  E9      30.05R
#ADAMS 3WNW     N/A         40  37  89  CALM    30.05R
#ATHENA         N/A         47  38  71  CALM    30.06R
#CAYUSE         N/A         53  41  64  E12     30.01S
#HELIX SCHOOL   N/A         42  38  86  CALM    30.03R
#HELIX 3N       N/A         53  41  64  S6      30.03R
#HOLDMAN 5SE    N/A         48  42  80  SE1     30.04R
#HOLDMAN 6E     N/A         50  42  74  CALM    29.83R
#M-F FERNDALE   N/A         54  38  55  CALM    30.00S
#M-FREEWATER 5SEN/A         55  38  53  E1      30.05R
#PENDLETON DNTN N/A         48  37  65  E1      30.04S
#PDT AQUATIC CTRN/A         47  38  71  CALM    30.08S
#PDT SUNRIDGE   N/A         43  39  86  CALM    30.07R
#PENDLETON 7NW  N/A         51  42  71  N6      25.66S
#PILOT ROCK 1S  N/A         54  34  47  SE7     30.06S
#PILOT ROCK     N/A         50  37  61  CALM    30.08R
#TUTUILLA       N/A         42  39  89  CALM    30.04R
#UMAPINE 2E     N/A         57  42  57  SE5     30.00S
#WESTON SCHOOL  N/A         56  35  45  CALM    30.01S

$$

ORZ508-271210-
SOUTHERN FOOTHILLS OF THE BLUES

CITY            SKY/WX      TMP DP  RH  WIND    PRES   REMARKS
LEXINGTON       CLEAR       54  36  50  SE14    30.08S
#AJAX           N/A         57  30  35  S3      30.20R
#CONDON 5W      N/A         60  31  33  NE2     30.09R
#FOSSIL SCHOOL  N/A         42  35  76  CALM    30.04R
#HEPPNER EOC    N/A         51  37  59  SE8     29.96S
#HEPPNER 4NE    N/A         53  36  52  SE5     30.02
#MIKKALO        N/A         52  33  48  SE2     30.15R
#OLEX 4N        N/A         53  38  57  S6      30.02R
#RUGGS 5NE      N/A         48  33  56  W1      30.27S
#RUGGS 2SW      N/A         54  36  50  SW10    30.04S

$$

ORZ502-503-271210-
BLUE MOUNTAINS

CITY            SKY/WX      TMP DP  RH  WIND    PRES   REMARKS
MEACHAM         CLEAR       32  28  85  CALM    30.13S
#BATTLE MTN DOT N/A         41  35  79  S2      N/A
#GRANITE        N/A         28  21  75  CALM    29.80S
#GREENHORN 9SW  N/A         32  31  96  CALM    30.16R
#HARDMAN 10S    N/A         47  35  63  CALM    30.16R
#LADD CYN SMT   N/A         35  34  96  CALM    N/A
#LADD CREEK ODOTN/A         40  36  85  S3      N/A
#LONG CREEK HS  N/A         41  39  93  CALM    N/A
#N POWDER DOT   N/A         36  35  96  CALM    N/A
#PIKES PEAK     N/A         60  34  37  N5      27.99S
#SUMMERVILLE 5NWN/A         38  34  85  NW2     30.14R
#TOLLGATE       N/A         41  32  70  CALM    29.99S
#TROY SCHOOL    N/A         45  42  89  CALM    29.95R
#UKIAH          N/A         32  30  92  CALM    30.06R
#WESTON 4E      N/A         51  33  50  E5      30.00R
$$

ORZ505-271210-
JOHN DAY BASIN

CITY            SKY/WX      TMP DP  RH  WIND    PRES   REMARKS
JOHN DAY        CLEAR       46  36  68  SE9     30.14S
#ANTELOPE 9ESE  N/A         47  38  71  CALM    N/A
#DAYVILLE SCHOOLN/A         45  36  70  CALM    30.09S
#MITCHELL       N/A         45  38  76  E6      30.25R
#MITCHELL 8NW   N/A         57  34  42  CALM    30.03S
#MONUMENT HS    N/A         42  36  79  CALM    30.08R
#MT. VERNON 5SE N/A         45  35  68  CALM    30.09R
#SPRAY SCHOOL   N/A         41  N/A N/A CALM    N/A
$$

ORZ506-271210-
OCHOCO AND JOHN DAY HIGHLANDS

CITY            SKY/WX      TMP DP  RH  WIND    PRES   REMARKS
#HORSE RIDGE DO N/A         29  21  72  S1      N/A
#PAULINA ODOT   N/A         37  33  85  CALM    N/A
#PINE MTN OBS   N/A         49  33  54  E6      N/A
#PRAIRIE CITY   N/A         35  32  89  CALM    30.29R
#SENECA         N/A         34  N/A N/A CALM    N/A
#SENECA 9NW     N/A         30  28  92  CALM    30.09R
$$

ORZ049-271210-
GRANDE RONDE VALLEY

CITY            SKY/WX      TMP DP  RH  WIND    PRES   REMARKS
LA GRANDE       CLEAR       39  30  70  CALM    30.13R
#COVE           N/A         40  38  92  CALM    30.15R
#COVE SCHOOL    N/A         39  37  92  CALM    30.13R
#COVE 6NW       N/A         38  34  85  CALM    30.09R
#ELGIN 3N       N/A         38  34  85  CALM    30.10R
#ELGIN 1E       N/A         41  36  82  CALM    N/A
#IMBLER SCHOOL  N/A         38  34  85  CALM    30.08S
#ISLAND CITY 4N N/A         54  50  86  CALM    30.01R
#LA GRANDE-LEFFEN/A         44  37  76  CALM    30.11R
#UNION 1S       N/A         40  36  85  CALM    30.07S
$$

ORZ050-271210-
WALLOWA COUNTY

CITY            SKY/WX      TMP DP  RH  WIND    PRES   REMARKS
JOSEPH AIRPORT  CLEAR       41  36  82  S5      30.16R
#ENTERPRISE HS  N/A         37  34  89  CALM    29.97R
#IMNAHA SCHOOL  N/A         46  42  86  N1      30.13R
#IMNAHA 10S     N/A         46  39  76  SW3     30.12R
#JOSEPH         N/A         44  37  76  CALM    30.11S
#JOSEPH 3N      N/A         36  30  79  CALM    30.16R
#JOSEPH 3W      N/A         43  38  82  SW3     29.97S
#LOSTINE        N/A         37  35  92  CALM    29.88S
#LOSTINE 3SE    N/A         41  37  86  S5      30.17S
#MT HOWARD 8000 N/A         39  29  67  CALM    30.22F
#PROMISE 1S     N/A         42  39  89  S1      30.16F
#WALLOWA LAKE   N/A         45  34  65  S3      30.17R
#WALLOWA SCHOOL N/A         38  36  92  CALM    30.10R



$$



USA.gov is the U.S. government's official web portal to all federal, state and local government web resources and services.